Regional Weather Roundup
Issued by NWS Kansas City/Pleasant Hill, MO

Home | Current Version | Previous Version | Text Only | Print | Product List | Glossary On
Versions: 1 2 3 4 5 6 7 8 9 10 11 12 13 14 15 16 17 18 19 20 21 22 23 24 25 26 27 28 29 30 31 32 33 34 35 36 37 38 39 40 41 42 43 44 45 46 47 48 49 50
931
ASUS43 KEAX 071310
RWREAX

WEATHER ROUNDUP FOR EASTERN KANSAS AND NORTHWEST MISSOURI
NATIONAL WEATHER SERVICE KANSAS CITY/PLEASANT HILL MO
700 AM CST WED DEC 07 2016

KSZ040-057-103>105-MOZ028-029-037-043-071400-
...KANSAS CITY METROPOLITAN AREA...

CITY           SKY/WX    TMP DP  RH WIND       PRES   REMARKS
K.C. INTL      CLOUDY    27  13  55 N10       30.18R WCI  17
K.C. DOWNTOWN  CLOUDY    31  12  45 N6        30.20R WCI  25
LEES SUMMIT    CLOUDY    30  12  47 NE8       30.19R WCI  22
OLATHE - IXD   CLOUDY    29  13  51 NE3       30.19R
OLATHE - OJC   CLOUDY    30  11  45 N6        30.18R WCI  24
LAWRENCE       CLOUDY    29  15  56 N5        30.21R WCI  24

$$

MOZ001>008-011>017-020>025-030>033-038>040-044>046-053-054-071400-
...NORTHERN AND CENTRAL MISSOURI...

CITY           SKY/WX    TMP DP  RH WIND       PRES   REMARKS
ST. JOSEPH     CLOUDY    25  15  66 N12       30.22R WCI  14
MOSBY          CLOUDY    28  14  54 N6        30.20R WCI  22
WARRENSBURG    CLOUDY    30  16  55 CALM      30.21R
WHITEMAN AFB   MOCLDY    30  15  54 CALM      30.18R
CLINTON        CLOUDY    32  19  59 CALM      30.21R
SEDALIA        CLOUDY    31  17  56 N3        30.20R
WARSAW         NOT AVBL
CHILLICOTHE      N/A     25  14  63 NW3       30.22R
KIRKSVILLE     PTCLDY    25  14  63 NW9       30.19R WCI  15

$$

MOZ041-047>049-056>058-063>065-088>090-097-071400-
...EASTERN AND SOUTHERN MISSOURI...

CITY           SKY/WX    TMP DP  RH WIND       PRES   REMARKS
ST. LOUIS INTL MOCLDY    32  18  56 SW3       30.19R
SPIRIT OF STL  CLOUDY    29  21  72 W3        30.20R
COLUMBIA       CLOUDY    30  15  53 NW3       30.18R
JEFFERSON CITY CLOUDY    29  22  75 MISG      30.21R
ROLLA          CLOUDY    25  20  81 CALM      30.17R
OSAGE BEACH    CLOUDY    28  24  85 CALM      30.20S
SPRINGFIELD    CLOUDY    29  18  63 SE8       30.16F WCI  21
BRANSON        CLOUDY    30  18  59 E5        30.20R WCI  25
JOPLIN         CLOUDY    31  18  58 E9        30.18S WCI  23
WEST PLAINS    CLOUDY    26  19  74 NE3       30.20R

$$

IAZ060-094-KSZ022-034>040-054-083-096-NEZ052-066-093-071400-
...KANSAS...SOUTHEAST NEBRASKA AND IOWA...

CITY           SKY/WX    TMP DP  RH WIND       PRES   REMARKS
TOPEKA         CLOUDY    29  15  56 N7        30.22R WCI  22
MANHATTAN      CLOUDY    28  13  53 NE12      30.23R WCI  18
EMPORIA        CLOUDY    28  18  66 N3        30.19R
CHANUTE        CLOUDY    33  17  51 E6        30.19R WCI  28
WICHITA        CLOUDY    34  15  46 E9        30.17R WCI  27
OMAHA          CLOUDY    16   7  67 NW14      30.25R WCI   2
LINCOLN        CLOUDY    19   7  59 N14       30.27R WCI   6
FALLS CITY     CLOUDY    23  13  65 NW10      30.24R WCI  12
LAMONI         CLOUDY    21  12  68 NW10      30.18R WCI  10
DES MOINES     CLOUDY    18   9  68 NW15      30.18R WCI   4

$$





USA.gov is the U.S. government's official web portal to all federal, state and local government web resources and services.